Weather History for Estherville, IA

Change the Weather History Date:

Wednesday, April 16, 2014

  Actual Average Record
Temperature  
Mean Temperature 42 °F 47 °F  
Max Temperature 56 °F 59 °F 87 °F (2004)
Min Temperature 28 °F 36 °F 21 °F (1961)
Degree Days  
Heating Degree Days 23 18  
Month to date heating degree days 389 339  
Since 1 July heating degree days 8045 7254  
Cooling Degree Days 0 0  
Month to date cooling degree days 0 0  
Year to date cooling degree days 0 0  
Moisture  
Dew Point 32 °F    
Average Humidity 69    
Maximum Humidity 100    
Minimum Humidity 38    
Precipitation  
Precipitation 0.12 in 0.11 in 0.55 in (1992)
Month to date precipitation 0.57 1.54  
Sea Level Pressure  
Sea Level Pressure 29.82 in    
Wind  
Wind Speed 24 mph (NNW)    
Max Wind Speed 33 mph    
Max Gust Speed 41 mph    
Visibility 7 miles    
Events Rain , Snow    
T = Trace of Precipitation, MM = Missing Value Source: NWS Daily Summary

Daily Weather History Graph

Daily Weather History Graph

Search for Another Location

Airport:

Trip Planner

Search our weather history database for the weather conditions in past years. The results will help you decide how hot, cold, wet, or windy it might be!

Date:

Astronomy

Apr. 16, 2014 Rise Set
Actual Time 6:34 AM CDT 8:03 PM CDT
Civil Twilight 6:05 AM CDT 8:33 PM CDT
Nautical Twilight 5:29 AM CDT 9:09 PM CDT
Astronomical Twilight 4:50 AM CDT 9:47 PM CDT
Moon 9:50 PM CDT (4/16) 7:21 AM CDT (4/16)
Length of Visible Light 14h 28m
Length of Day
13h 28m
Full, 98% of the Moon is Illuminated
Apr 16
Full
Apr 22
Last Quarter
Apr 29
New
May 6
First Quarter
May 14
Full

Hourly Weather History & Observations

Time (CDT) Temp. Windchill Dew Point Humidity Pressure Visibility Wind Dir Wind Speed Gust Speed Precip Events Conditions
12:52 AM 30.9 °F 19.1 °F 24.1 °F 76% 29.94 in 10.0 mi ESE 18.4 mph - N/A   Partly Cloudy
1:52 AM 32.0 °F 18.4 °F 24.1 °F 73% 29.89 in 10.0 mi SE 26.5 mph 33.4 mph N/A   Mostly Cloudy
2:52 AM 33.1 °F 20.3 °F 25.0 °F 72% 29.86 in 10.0 mi SE 24.2 mph 32.2 mph N/A   Mostly Cloudy
3:52 AM 35.1 °F 22.5 °F 26.1 °F 70% 29.82 in 10.0 mi SE 26.5 mph - N/A   Overcast
4:52 AM 34.0 °F 22.1 °F 27.0 °F 75% 29.82 in 10.0 mi SE 21.9 mph - N/A   Overcast
5:52 AM 35.1 °F 23.5 °F 28.9 °F 78% 29.78 in 10.0 mi SSE 21.9 mph - N/A   Overcast
6:52 AM 36.0 °F 25.3 °F 30.0 °F 79% 29.78 in 10.0 mi SSE 19.6 mph - N/A   Overcast
7:52 AM 37.0 °F 26.7 °F 30.0 °F 76% 29.79 in 10.0 mi SSE 19.6 mph 28.8 mph N/A   Mostly Cloudy
8:52 AM 37.9 °F 27.1 °F 30.9 °F 76% 29.77 in 10.0 mi SSE 23.0 mph 31.1 mph N/A   Mostly Cloudy
9:52 AM 45.0 °F 36.0 °F 32.0 °F 60% 29.76 in 10.0 mi South 25.3 mph 34.5 mph N/A   Partly Cloudy
10:52 AM 48.9 °F - 33.1 °F 54% 29.76 in 10.0 mi South 24.2 mph 33.4 mph N/A   Clear
11:52 AM 50.0 °F - 30.9 °F 48% 29.75 in 10.0 mi South 29.9 mph 36.8 mph N/A   Scattered Clouds
1:52 PM 54.0 °F - 30.9 °F 41% 29.72 in 10.0 mi South 27.6 mph 35.7 mph N/A   Partly Cloudy
2:52 PM 55.0 °F - 30.9 °F 40% 29.74 in 10.0 mi SSW 25.3 mph 35.7 mph N/A   Scattered Clouds
3:52 PM 55.0 °F - 32.0 °F 42% 29.72 in 10.0 mi SSW 19.6 mph 25.3 mph N/A   Overcast
4:52 PM 54.0 °F - 35.1 °F 49% 29.72 in 9.0 mi WSW 20.7 mph 25.3 mph N/A   Overcast
5:19 PM 41.0 °F 30.9 °F 37.9 °F 89% 29.72 in 7.0 mi North 24.2 mph 31.1 mph 0.00 in Rain Light Rain
5:52 PM 41.0 °F 31.4 °F 39.9 °F 96% 29.79 in 5.0 mi North 21.9 mph - 0.01 in Rain Light Rain
6:52 PM 39.0 °F 29.6 °F 37.9 °F 96% 29.81 in 4.0 mi North 18.4 mph - 0.02 in Rain Light Rain
7:28 PM 37.0 °F 26.7 °F 37.0 °F 100% 29.79 in 2.5 mi North 19.6 mph 28.8 mph 0.02 in Rain Light Rain
7:50 PM 35.6 °F 24.8 °F 35.6 °F 100% 29.80 in 2.5 mi North 19.6 mph - 0.04 in Rain Rain
7:52 PM 36.0 °F 25.6 °F 36.0 °F 100% 29.84 in 3.0 mi North 18.4 mph - 0.05 in Rain Rain
8:04 PM 36.0 °F 26.3 °F 36.0 °F 100% 29.81 in 3.0 mi North 16.1 mph - 0.01 in Rain Rain
8:49 PM 32.0 °F 20.1 °F 32.0 °F 100% 29.86 in 2.5 mi NNW 19.6 mph - 0.04 in Snow Light Snow
8:52 PM 32.0 °F 20.1 °F 32.0 °F 100% 29.90 in 2.5 mi NNW 19.6 mph - 0.04 in Snow Light Snow
9:01 PM 32.0 °F 19.8 °F 32.0 °F 100% 29.88 in 3.0 mi NNW 20.7 mph - 0.00 in Snow Light Snow
9:16 PM 32.0 °F 18.6 °F 32.0 °F 100% 29.89 in 5.0 mi NNW 25.3 mph 31.1 mph 0.00 in   Overcast
9:52 PM 30.9 °F 16.7 °F 30.0 °F 96% 29.95 in 4.0 mi NNW 27.6 mph 34.5 mph 0.00 in Snow Light Snow
10:52 PM 30.0 °F 15.4 °F 28.9 °F 96% 29.99 in 8.0 mi NNW 27.6 mph 35.7 mph 0.00 in   Overcast
11:52 PM 28.9 °F 14.0 °F 28.0 °F 96% 30.02 in 9.0 mi NNW 27.6 mph 35.7 mph N/A   Overcast